Regional Weather Roundup
Issued by NWS Pendleton, OR

Home | Current Version | Previous Version | Text Only | Print | Product List | Glossary On
Versions: 1 2 3 4 5 6 7 8 9 10 11 12 13 14 15 16 17 18 19 20 21 22 23 24 25 26 27 28 29 30 31 32 33 34 35 36 37 38 39 40 41 42 43 44 45 46 47 48 49 50
000
ASUS46 KPDT 290325
RWRPDT
PENDLETON REGIONAL WEATHER ROUNDUP
NATIONAL WEATHER SERVICE PENDLETON OREGON
800 PM PDT THU AUG 28 2014

NOTE: FAIR INDICATES FEW OR NO CLOUDS BELOW 12,000 FEET WITH NO
SIGNIFICANT WEATHER AND/OR OBSTRUCTIONS TO VISIBILITY.

# INDICATES UNOFFICIAL STATION AND DATA

WAZ520-290410-
EAST SLOPES OF WASHINGTON CASCADES

CITY            SKY/WX      TMP DP  RH  WIND    PRES   REMARKS
#CLE ELUM HS    N/A         68  52  57  SW6     29.96S
#CLE ELUM 2NW   N/A         66  50  56  SW2     N/A
#CLE ELUM LAKE  N/A         64  52  65  CALM    29.90S
#CLIFFDEL 2NW   N/A         66  48  52  N6      N/A
#GLENWOOD       N/A         67  56  68  S3      29.91R
#NELSON         N/A         68  52  57  CALM    29.93S
#NELSON 3SW     N/A         63  48  58  CALM    30.11S
#NILE           N/A         69  51  53  W1      29.20R
#RONALD 2NW     N/A         67  51  56  SW2     29.92S
#TEANAWAY 4NE   N/A         69  54  59  CALM    N/A
#TROUT LAKE 1NE N/A         68  56  65  W7      29.92R
$$

WAZ521-290410-
SIMCOE HIGHLANDS

CITY            SKY/WX      TMP DP  RH  WIND    PRES   REMARKS
#BICKLETON HS   N/A         67  37  33  CALM    30.06S
#CENTERVILLE 1SWN/A         71  52  51  W14     29.87R
#GOLDENDALE     N/A         77  50  39  W12     N/A
#GOLDENDALE 1NE N/A         74  45  35  SW3     N/A
#GOLDENDALE 1S  N/A         72  53  51  W1      29.96R
#GOLDENDALE 5WNWN/A         73  54  51  SW12    29.88R
#GOODNOE HILLS  N/A         76  54  46  W17     29.89R
#LYLE 6NE       N/A         71  52  51  SW1     29.90R
$$

WAZ026-290410-
KITTITAS VALLEY

CITY            SKY/WX      TMP DP  RH  WIND    PRES   REMARKS
ELLENSBURG AP   PTCLDY      71  50  47  NW17    29.98S
#ELLENSBURG CWU N/A         71  49  46  NW7     29.86S
#ELLENSBURG 3NE N/A         68  51  55  N7      29.98S
#ELLENSBURG     N/A         74  50  43  NW3     N/A
#ELLENSBURG 1E  N/A         72  46  39  CALM    N/A
#KITTITAS 3S    N/A         71  50  47  NW7     29.86S
#THORP 6N       N/A         67  50  54  W21G31  29.91S
$$

WAZ027-290410-
YAKIMA VALLEY

CITY            SKY/WX      TMP DP  RH  WIND    PRES   REMARKS
SUNNYSIDE AP    CLEAR       75  54  48  CALM    29.90R
YAKIMA AIRPORT  PTCLDY      79  49  35  N8      29.94R
YAKIMA-VAGABOND PTCLDY      77  44  31  N8      29.96R
#COWICHE 1N     N/A         72  50  46  W6      30.13S
#GRANDVIEW      N/A         76  53  45  CALM    29.88R
#MABTON         N/A         77  56  48  NW2     29.89R
#MOXEE 2E       N/A         76  32  20  NW6     29.88R
#NACHES 2SW     N/A         72  51  48  W9      29.98S
#OUTLOOK DOT    N/A         N/A N/A N/A N7      N/A
#SELAH 8E       N/A         73  44  35  N8      N/A
#TERRACE HTS    N/A         76  46  34  NW7     29.83S
#TOPPENISH      N/A         78  51  39  N1      29.79R
#WEST VALLEY    N/A         77  51  40  CALM    29.85R
#W YAKIMA       N/A         75  50  41  N3      29.88R
#WHITE SWAN 5E  N/A         78  52  40  W1      29.87R
#WILEY CITY 3W  N/A         72  42  34  CALM    29.94
$$

WAZ028-290410-
LOWER COLUMBIA BASIN...WASHINGTON

CITY            SKY/WX      TMP DP  RH  WIND    PRES   REMARKS
PASCO           CLEAR       81  50  34  NW9     29.88R
PROSSER AWOS    N/A         70  55  59  N7      29.93R
RICHLAND AWOS   CLEAR       81  45  28  W7      29.88R
#BASIN CITY 5SW N/A         78  51  39  NW12    29.88S
#BENTON CITY    N/A         80  48  33  CALM    29.76R
#CONNELL 5N     N/A         77  48  36  W2      29.83S
#CONNELL 5NW    N/A         74  50  43  CALM    29.83R
#ELTOPIA        N/A         77  52  42  W1      29.82R
#ELTOPIA 6NW    N/A         78  53  42  W3      28.88R
#KENNEWICK 3S   N/A         79  47  32  CALM    29.87R
#PATERSON       N/A         79  59  50  W5      29.83S
#PROSSER        N/A         82  38  21  SW2     29.85R
#SAGEMOOR 2W    N/A         75  53  46  CALM    29.72R
#TOUCHET 2S     N/A         77  42  29  SW5     29.84R
#WEST PASCO     N/A         83  48  30  NW2     29.87R
$$

WAZ029-290410-
FOOTHILLS OF THE BLUES...WASHINGTON

CITY            SKY/WX      TMP DP  RH  WIND    PRES   REMARKS
WALLA WALLA AP  CLEAR       81  40  23  S5      29.93S
#COLLEGE PLACE  N/A         85  46  26  W1      29.90R
#DAYTON SCHOOL  N/A         71  37  29  N2      29.94R
#LOWDEN 2SE     N/A         76  48  37  E1      29.85R
#PLEASANT VIEW 1N/A         75  42  31  S5      29.89R
#PRESCOTT       N/A         68  45  44  CALM    29.85R
#SUDBURY        N/A         72  N/A N/A CALM    N/A
#WHITMAN COLLEGEN/A         79  45  30  E3      29.91R
#WAITSBURG 8N   N/A         66  23  19  CALM    29.85S
#WALLA WALLA 5E N/A         73  37  27  SW6     N/A
#WALLA WALLA U  N/A         79  51  38  CALM    29.85S
#WHITMAN MISSIONN/A         79  53  41  CALM    29.86S
$$

WAZ030-290410-
BLUE MOUNTAINS...WASHINGTON

CITY            SKY/WX      TMP DP  RH  WIND    PRES   REMARKS
$$

ORZ009-041-WAZ024-290410-
COLUMBIA RIVER GORGE

CITY            SKY/WX      TMP DP  RH  WIND    PRES   REMARKS
HOOD RIVER AP   CLEAR       75  54  48  NW3     29.98S
THE DALLES AP   CLEAR       80  48  33  NW15    29.92S
#ARLINGTON AIRPON/A         77  54  45  W16     N/A
#ARLINGTON HS   N/A         81  51  35  N12     29.77S
#MARYHILL 2W    N/A         78  54  43  NW9     N/A
#MOSIER 1S      N/A         75  43  32  W6      30.00R
#MURDOCK        N/A         80  56  44  W15     29.93S
#RUFUS DOT      N/A         81  55  41  N7      N/A

$$

ORZ510-290410-
NORTH CENTRAL OREGON

CITY            SKY/WX      TMP DP  RH  WIND    PRES   REMARKS
#CHENOWITH 1W   N/A         72  47  41  W24     N/A
#COW CYN RST AREN/A         72  47  41  NW8     N/A
#DUFUR 9E       N/A         70  43  38  W15     29.96S
#GRASS VALLEY   N/A         70  40  34  N2      N/A
#GRASS VALLEY 1SN/A         71  43  36  N2      29.95S
#KENT DOT       N/A         68  36  31  NW6     N/A
#MAUPIN SCHOOL  N/A         79  43  28  W1      28.83R
#MORO SCHOOL    N/A         73  52  48  W9      30.00R
#SHANIKO 5WSW   N/A         69  42  37  NW14    N/A
#SHANIKO 4NW    N/A         68  42  39  NW13    30.08S
#TYGH VALLEY 2NEN/A         77  37  24  N7      29.90R
#WAPANITIA AIRPON/A         74  41  30  NW3     29.91R
#WASCO DOT      N/A         76  53  45  W21     N/A
#WASCO AIRPORT  N/A         75  47  37  W13     N/A
#WASCO 5NE      N/A         73  51  46  W8      29.89S
$$

ORZ511-290410-
CENTRAL OREGON

CITY            SKY/WX      TMP DP  RH  WIND    PRES   REMARKS
BEND AIRPORT    CLEAR       75  37  25  N10     30.08R
MADRAS AIRPORT  CLEAR       75  50  41  N9      30.04R
REDMOND AIRPORT CLEAR       76  41  28  N10     30.04R
#BEND 6E        N/A         74  36  25  CALM    29.83S
#BEND 1SW       N/A         73  46  38  CALM    N/A
#BEND-AWBREY    N/A         72  45  38  SW3     29.90R
#BEND-KIM LN    N/A         72  45  38  CALM    30.05R
#CROOKED RVR RANN/A         77  48  36  NE1     29.89R
#CULVER         N/A         72  52  49  CALM    30.00R
#CULVER 1E      N/A         71  53  53  CALM    30.04R
#LAKE BILLY CHINN/A         77  -4   4  SW2     30.05R
#POWELL BUTTE   N/A         72  42  34  NW3     29.71R
#PRINEVILLE 3N  N/A         71  51  49  CALM    29.85R
#WARM SPRINGS   N/A         78  53  42  SW13    29.95S


ORZ509-290410-
EAST SLOPES OF OREGON CASCADES

CITY            SKY/WX      TMP DP  RH  WIND    PRES   REMARKS
#BLUE BOX PASS  N/A         59   6  12  W2      N/A
#BLACK BUTTE RNCN/A         68  50  53  CALM    29.90R
#CAMP SHERMAN   N/A         69  46  44  CALM    29.99R
#LA PINE DOT    N/A         69  43  39  NW2     N/A
#LA PINE 4NW    N/A         68  49  51  CALM    29.97R
#LAVA BUTTE DOT N/A         67  44  43  CALM    N/A
#SISTERS AIRPOR N/A         73  56  55  N3      30.03S
#SISTERS ODOT   N/A         73  N/A N/A S7      N/A
#SISTERS 1NW    N/A         75  43  32  N12     N/A
#SISTERS 3N     N/A         71  46  41  CALM    N/A
#SUNRIVER       N/A         69  48  47  CALM    29.81R
#SUNRIVER AP    N/A         69  48  47  CALM    29.87R
#SUTTLE LK DOT  N/A         63  47  56  CALM    N/A
#TUMALO 3W      N/A         72  46  39  NW6     29.78R
#WANOGA BUTTE D N/A         62  41  46  W5      N/A

$$

ORZ044-290410-
LOWER COLUMBIA BASIN...OREGON

CITY            SKY/WX      TMP DP  RH  WIND    PRES   REMARKS
HERMISTON       CLEAR       80  45  29  W6      29.89S
#BOARDMAN SCHOOLN/A         83  52  34  SW2     29.85S
#BOARDMAN 3W    N/A         79  52  39  SW6     29.59R
#BOARDMAN 8SW   N/A         74  56  53  SW5     29.86R
#ECHO 8SW       N/A         79  46  31  W7      29.88R
#IONE SCHOOL    N/A         77  47  35  W8      29.93R
#IRRIGON 4NW    N/A         81  55  41  S6      N/A
#UMATILLA SCHOOLN/A         82  62  51  CALM    29.96S
#UMATILLA       N/A         81  49  33  SW1     29.85S
$$

ORZ507-290410-
NORTHERN FOOTHILLS OF THE BLUES

CITY            SKY/WX      TMP DP  RH  WIND    PRES   REMARKS
PENDLETON AIRPT CLEAR       79  32  18  W5      29.94S
#ADAMS 3WNW     N/A         73  36  26  CALM    29.86R
#ATHENA         N/A         71  40  32  CALM    29.89R
#HELIX SCHOOL   N/A         73  36  26  N1      29.86R
#HELIX 3N       N/A         76  34  22  SW3     29.93S
#HOLDMAN 5SE    N/A         74  36  25  CALM    29.95R
#HOLDMAN 6E     N/A         75  34  22  CALM    29.69R
#M-F GROVE ELEM N/A         74  38  27  CALM    29.92R
#M-FREEWATER 5SEN/A         72  44  37  CALM    29.94R
#PENDLETON DNTN N/A         77  36  23  CALM    29.89S
#PDT AQUATIC CTRN/A         77  34  21  CALM    29.96S
#PDT SUNRIDGE   N/A         78  32  19  SE1     29.94R
#PENDLETON 7NW  N/A         78  47  34  CALM    N/A
#PILOT ROCK     N/A         74  29  19  CALM    29.99R
#TUTUILLA       N/A         70  38  31  CALM    29.82R
#UMAPINE 2E     N/A         67  56  68  CALM    29.87R
#WESTON SCHOOL  N/A         73  31  21  CALM    29.92R

$$

ORZ508-290410-
SOUTHERN FOOTHILLS OF THE BLUES

CITY            SKY/WX      TMP DP  RH  WIND    PRES   REMARKS
LEXINGTON       CLEAR       75  45  34  W9      29.98S
#AJAX           N/A         73  39  29  W10     29.95S
#CONDON SCHOOL  N/A         71  40  32  NW5     30.00R
#CONDON 5W      N/A         67  35  30  NW13    30.03S
#FOSSIL SCHOOL  N/A         74  41  30  N3      30.01R
#HEPPNER EOC    N/A         72  41  33  W5      29.85R
#HEPPNER 4NE    N/A         70  42  36  W3      29.88S
#LEXINGTON 2SE  N/A         77  45  32  CALM    29.93R
#MIKKALO        N/A         75  44  33  W6      30.00R
#OLEX 4N        N/A         76  49  39  SW14    29.92R
#RUGGS 5NE      N/A         70  39  32  W7      30.20S
#RUGGS 2SW      N/A         69  36  30  W7      29.94R

$$

ORZ502-503-290410-
BLUE MOUNTAINS

CITY            SKY/WX      TMP DP  RH  WIND    PRES   REMARKS
MEACHAM         CLEAR       64  24  22  CALM    30.09R
#BATTLE MTN DOT N/A         66  45  47  CALM    N/A
#HARDMAN 10S    N/A         66  37  34  CALM    30.15R
#HEPPNER 15SE   N/A         62  41  46  E3      30.02S
#LADD CYN SMT   N/A         73  36  26  NW10    N/A
#LADD CREEK ODOTN/A         70  46  42  CALM    N/A
#LONG CREEK HS  N/A         71  41  34  CALM    N/A
#N POWDER DOT   N/A         68  46  45  NE9     N/A
#PIKES PEAK     N/A         72  34  25  S8      27.99S
#TOLLGATE       N/A         57  32  38  CALM    30.06R
#UKIAH          N/A         70  39  32  N3      29.94R
#WESTON 4E      N/A         71  34  26  CALM    29.83R
$$

ORZ505-290410-
JOHN DAY BASIN

CITY            SKY/WX      TMP DP  RH  WIND    PRES   REMARKS
JOHN DAY        CLEAR       76  40  27  CALM    30.06R
#JOHN DAY KJDY  N/A         78  37  23  W2      30.17R
#MONUMENT HS    N/A         80  39  23  E3      29.98R
#MT. VERNON 5SE N/A         74  40  29  CALM    30.03R
#WINLOCK        N/A         69  40  35  CALM    30.11R
$$

ORZ506-290410-
OCHOCO AND JOHN DAY HIGHLANDS

CITY            SKY/WX      TMP DP  RH  WIND    PRES   REMARKS
#BUCK CREEK DOT N/A         77  45  32  NW7     N/A
#HORSE RIDGE DO N/A         73  33  23  NW8     N/A
#KEYES SMT DOT  N/A         71  35  27  NW3     N/A
#PAULINA SCHOOL N/A         N/A N/A N/A CALM    30.04R
#PINE MTN OBS   N/A         63  35  35  N7      N/A
#PRAIRIE CITY   N/A         71  42  35  CALM    29.88R
#SENECA 9NW     N/A         71  40  32  CALM    29.86R
$$

ORZ049-290410-
GRANDE RONDE VALLEY

CITY            SKY/WX      TMP DP  RH  WIND    PRES   REMARKS
LA GRANDE       CLEAR       70  37  30  NW6     30.02R
#COVE           N/A         68  51  55  N1      29.94R
#COVE SCHOOL    N/A         69  50  51  CALM    30.01R
#COVE 6NW       N/A         71  43  36  W2      29.93R
#ELGIN 3N       N/A         69  34  27  CALM    29.75R
#ELGIN 1E       N/A         75  39  27  CALM    N/A
#IMBLER SCHOOL  N/A         72  39  30  N2      29.98R
#ISLAND CITY 4N N/A         71  42  35  CALM    29.83R
#LADD CYN DOT   N/A         75  45  34  NE7     N/A
#LA GRANDE ELEM N/A         75  33  21  W6      30.00R
#UNION 1S       N/A         70  48  46  CALM    29.78R
$$

ORZ050-290410-
WALLOWA COUNTY

CITY            SKY/WX      TMP DP  RH  WIND    PRES   REMARKS
JOSEPH AIRPORT  PTCLDY      64  46  52  S6      30.10R
#ENTERPRISE AP  N/A         70  41  35  CALM    30.01R
#ENTERPRISE HS  N/A         68  49  51  CALM    30.06R
#IMNAHA SCHOOL  N/A         75  45  34  CALM    29.88R
#IMNAHA 10S     N/A         74  47  38  SW2     30.00R
#JOSEPH 3N      N/A         66  47  50  CALM    30.09R
#JOSEPH 3W      N/A         61  47  60  SW2     29.96R
#LOSTINE        N/A         65  49  56  CALM    29.70R
#MT HOWARD 8000 N/A         55  37  51  W7      30.33S
#PROMISE 1S     N/A         70  41  35  E3      30.00R
#SHEEP RDG 7000 N/A         59  41  51  CALM    29.86R
#WALLOWA SCHOOL N/A         69  49  49  CALM    30.78R



$$



USA.gov is the U.S. government's official web portal to all federal, state and local government web resources and services.